Weather History for Elko, NV

Change the Weather History Date:

Sunday, February 3, 2013

  Actual Average Record
Temperature  
Mean Temperature 30 °F 27 °F  
Max Temperature 41 °F 38 °F 65 °F (1953)
Min Temperature 19 °F 16 °F -21 °F (1950)
Degree Days  
Heating Degree Days 35 38  
Month to date heating degree days 112 115  
Since 1 July heating degree days 4132 4300  
Cooling Degree Days 0 0  
Month to date cooling degree days 0 0  
Year to date cooling degree days 0 0  
Moisture  
Dew Point 23 °F    
Average Humidity 76    
Maximum Humidity 92    
Minimum Humidity 60    
Precipitation  
Precipitation 0.00 in 0.03 in 0.35 in (1915)
Month to date precipitation 0.00 0.09  
Year to date precipitation 0.69 1.21  
Snow  
Snow 0.00 in 0.20 in 5.10 in (2008)
Month to date snowfall 0.0 0.8  
Since 1 July snowfall 30.9 26.9  
Snow Depth 5.00 in    
Sea Level Pressure  
Sea Level Pressure 30.29 in    
Wind  
Wind Speed 3 mph (SW)    
Max Wind Speed 10 mph    
Max Gust Speed 14 mph    
Visibility 8 miles    
Events Fog    
T = Trace of Precipitation, MM = Missing Value Source: NWS Daily Summary

Daily Weather History Graph

Daily Weather History Graph

Search for Another Location

Airport:

Trip Planner

Search our weather history database for the weather conditions in past years. The results will help you decide how hot, cold, wet, or windy it might be!

Date:

Astronomy

Feb. 03, 2013 Rise Set
Actual Time 6:51 AM PST 5:03 PM PST
Civil Twilight 6:22 AM PST 5:32 PM PST
Nautical Twilight 5:49 AM PST 6:05 PM PST
Astronomical Twilight 5:17 AM PST 6:37 PM PST
Moon 12:23 AM PST (2/3) 10:43 AM PST (2/3)
Length of Visible Light 11h 10m
Length of Day
10h 12m
Waning Gibbous, 47% of the Moon is Illuminated
Feb 3
Waning Gibbous
Feb 9
New
Feb 17
First Quarter
Feb 25
Full
Mar 4
Last Quarter

Hourly Weather History & Observations

Time (PST) Temp. Windchill Dew Point Humidity Pressure Visibility Wind Dir Wind Speed Gust Speed Precip Events Conditions
12:56 AM 26.1 °F - 23.0 °F 88% 30.35 in 10.0 mi Calm Calm - N/A   Clear
1:56 AM 25.0 °F 20.7 °F 21.9 °F 88% 30.34 in 10.0 mi ENE 3.5 mph - N/A   Clear
2:56 AM 24.1 °F - 21.0 °F 88% 30.32 in 10.0 mi Calm Calm - N/A   Clear
3:56 AM 24.1 °F 19.7 °F 21.9 °F 91% 30.32 in 10.0 mi East 3.5 mph - N/A   Clear
4:56 AM 24.1 °F - 21.9 °F 91% 30.32 in 10.0 mi Calm Calm - N/A   Clear
5:56 AM 19.9 °F - 18.0 °F 92% 30.34 in 10.0 mi Calm Calm - N/A   Clear
6:56 AM 19.9 °F - 18.0 °F 92% 30.35 in 8.0 mi Calm Calm - N/A   Clear
7:20 AM 19.4 °F - 17.6 °F 93% 30.24 in 8.0 mi Calm Calm - N/A   Partly Cloudy
7:56 AM 19.9 °F - 18.0 °F 92% 30.35 in 10.0 mi Calm Calm - N/A   Clear
8:21 AM 21.2 °F - 19.4 °F 93% 30.24 in 1.5 mi Calm Calm - N/A   Partly Cloudy
8:24 AM 21.2 °F - 21.2 °F 100% 30.24 in 0.5 mi Calm Calm - N/A Fog Light Freezing Fog
8:31 AM 23.0 °F - 21.2 °F 93% 30.24 in 0.2 mi Calm Calm - N/A Fog Light Freezing Fog
8:37 AM 24.8 °F - 23.0 °F 93% 30.24 in 1.0 mi Calm Calm - N/A   Mist
8:40 AM 24.8 °F - 24.8 °F 100% 30.24 in 3.0 mi Calm Calm - N/A   Partly Cloudy
8:56 AM 26.1 °F - 23.0 °F 88% 30.34 in 9.0 mi Calm Calm - N/A   Clear
9:56 AM 30.0 °F 26.5 °F 25.0 °F 82% 30.34 in 10.0 mi WSW 3.5 mph - N/A   Clear
10:56 AM 33.1 °F 27.7 °F 25.0 °F 72% 30.32 in 10.0 mi West 5.8 mph - N/A   Clear
11:56 AM 35.1 °F 31.0 °F 27.0 °F 72% 30.29 in 10.0 mi WSW 4.6 mph - N/A   Clear
12:56 PM 37.9 °F 34.4 °F 28.0 °F 68% 30.27 in 10.0 mi WSW 4.6 mph - N/A   Clear
1:56 PM 39.9 °F 34.5 °F 28.9 °F 65% 30.24 in 10.0 mi SSW 8.1 mph - N/A   Clear
2:56 PM 41.0 °F 35.2 °F 28.9 °F 62% 30.23 in 10.0 mi SSW 9.2 mph - N/A   Clear
3:56 PM 39.9 °F 36.7 °F 30.0 °F 68% 30.26 in 10.0 mi WSW 4.6 mph - N/A   Clear
4:56 PM 36.0 °F 31.1 °F 28.0 °F 73% 30.26 in 10.0 mi West 5.8 mph - N/A   Clear
5:56 PM 30.9 °F - 26.1 °F 82% 30.29 in 10.0 mi Calm Calm - N/A   Clear
6:56 PM 30.0 °F - 25.0 °F 82% 30.30 in 10.0 mi Calm Calm - N/A   Clear
7:56 PM 26.1 °F - 21.9 °F 84% 30.33 in 10.0 mi Calm Calm - N/A   Clear
8:56 PM 27.0 °F - 24.1 °F 89% 30.31 in 9.0 mi Calm Calm - N/A   Clear
9:56 PM 24.1 °F 19.7 °F 21.0 °F 88% 30.31 in 7.0 mi NE 3.5 mph - N/A   Clear
10:56 PM 25.0 °F 20.7 °F 21.0 °F 85% 30.30 in 7.0 mi East 3.5 mph - N/A   Clear
11:56 PM 21.9 °F - 19.9 °F 92% 30.30 in 7.0 mi Calm Calm - N/A   Clear